Location: Alafon
(8.4500°N, 4.2333°E)
Time: 16:48:42
(UTC+00:00)

SR - Pass Details

Date: 03 August 2021
Orbit: 581 x 874 km, 66.7° (Epoch: 18 September)

Event Time Altitude Azimuth Distance (km) Brightness Sun altitude
Rises 15:59:51 0° 321° (NW) 2,848 ? 28.5°
Reaches altitude 10° 16:02:23 10° 309° (NW) 1,919 ? 27.9°
Maximum altitude 16:05:59 26° 251° (WSW) 1,148 ? 27.1°
Drops below altitude 10° 16:09:31 10° 194° (SSW) 1,888 ? 26.2°
Sets 16:12:00 0° 181° (S) 2,794 ? 25.6°
